NOAA 16 DEB, 42359

Orbit data source: Space-Track

NOAA 16 DEB, 42359 is space debris in SSO originally from a launch on Thu, 21 Sep 2000 UTC launched from the Air Force Western Test Range (AFWTR). Debris objects in space refer to the collection of defunct objects orbiting the Earth. Examples of debris include non-operational satellites, rocket bodies, and fragments generated from explosions, collisions, or faulty payload assembly.

Loading next visibility...
Identifier
42359, 2000-055RB
Orbit
SSO
Country
Flag of USUS
Related business
Manufacturer
Unknown
Mission
Spacecraft
Bus & Motor
Unknown
Mass
Unknown
Launch date (UTC)
2000-09-21 (25 years ago)
Launch vehicle
Unknown
Launch site
Air Force Western Test Range (AFWTR)
Object type
Payload
Rocket body
Debris
Shape & HBR
Unknown shape, 0.1 m
Radar Cross Section
Small (<0.1 m²)

Expand to show TLE details & history
Last TLE update: 2 days ago

TLE from 2 days ago
0 NOAA 16 DEB
1 42359U 00055RB  25307.67575999  .00008267  00000-0  24529-2 0  9994
2 42359  98.9639 108.6904 0015696 135.6985 224.5463 14.43473606497836
Epoch: 2025-11-03T16:13Z
TLE epoch observation values (Epoch: 2025-11-03T16:13:05.663Z)
Latitude
0.00002°
Longitude
-177.75692°
Altitude
757.964 km
Speed
7.471 km/s
True Right ascension
07h 14m 45s
True Declination
0° 00' 00"
Sunlit
Object was in daylight at epoch
Visualization orbit readout
Latitude
Unknown
Longitude
Unknown
Altitude
Unknown
Speed
Unknown
Apparent Right ascension
Unknown
Apparent Declination
Unknown
Sunlit
N/A
Visualization observer readout
Local Sidereal Time
03:45:31
Azimuth
Unknown
Elevation
Unknown
Doppler factor
Unknown
Orbital elements
Apogee altitude
755.364 km
Perigee altitude
733.005 km
Semi-major axis
7,122.321 km
Eccentricity
0.00157
Inclination
98.9639°
RAAN
108.6904°
Arg. of periapsis
135.6985°
True anomaly
224.42031°
Mean anomaly
224.5463°
Eccentric anomaly
224.48328°
Mean motion
3.61086 °/min
Orbital period
99.7 mins
BSTAR
0.0024529
Loading maneuver chart data...
Computing Atmospheric mass density...
Loading historical data...
Loading historical data...
Loading historical data...
Loading historical data...
Loading historical data...
Loading historical data...
Loading historical data...

Documentation

Showing up to 5 results
|